Вернуться в каталог

ATLAS CENTAUR R/B

АктивенHEO
NORAD 15874·ROCKET BODY·🇺🇸 United States

Запущен Jun 30, 1985 с Cape Canaveral Space Force Station

Loading…

Ближайшие Пролёты (ближайшие 24 часа)

TLE

СвежийSource: Space-Track

Эпоха: Sep 12, 2026, 02:51 UTC

1 15874U 85055B   26255.11882853  .00003607  00000-0  12703-2 0  9995
2 15874  23.1428 275.4536 6454549  60.7700 348.3468  3.36230357440248

Отслеживайте ATLAS CENTAUR R/B в реальном времени с AllMySat

Download on the App Store